User: anonymous
Location: Bridgewater
(44.3670°N, 64.5170°W)
Time: 23:22:29
(UTC-03:00)
Language:

OPAL - Orbit

View from above orbital plane
View from above orbital plane
View from above satellite
View from above satellite

Ground track
Ground track

The orbit data is extracted from the following two-line orbital elements,

1 26063U 00004C   14274.52560167  .00000262  00000-0  10905-3 0   754
2 26063 100.2248 080.2063 0036370 217.5715 142.2923 14.36405439769286
Epoch (UTC): 01 October 2014 12:36:51
Eccentricity: 0.0036370
inclination: 100.2248°
perigee height: 744 km
apogee height: 796 km
right ascension of ascending node: 80.2063°
argument of perigee: 217.5715°
revolutions per day: 14.36405439
mean anomaly at epoch: 142.2923°
orbit number at epoch: 76928

The dashed part of the orbit path shows where the satellite is in the earth's shadow,  

DLR